Regional Weather Roundup
Issued by NWS

Home | Current Version | Previous Version | Graphics & Text | Print | Product List | Glossary On
Versions: 1 2 3 4 5 6 7 8 9 10 11 12 13 14 15 16 17 18 19 20 21 22 23 24 25 26 27 28 29 30 31 32 33 34 35 36 37 38 39 40 41 42 43 44 45 46 47 48 49 50
000
ASUS43 KLMK 241710
RWRKY
KENTUCKY REGIONAL WEATHER ROUNDUP
NATIONAL WEATHER SERVICE LOUISVILLE KY
100 PM EDT FRI OCT 24 2014

NOTE "FAIR" INDICATES FEW OR NO CLOUDS BELOW 12,000 FEET
WITH NO SIGNIFICANT WEATHER AND/OR OBSTRUCTIONS TO VISIBILITY.

KYZ001>023-026-027-061>063-070>075-241800-
WESTERN AND SOUTH CENTRAL KENTUCKY

CITY           SKY/WX    TMP DP  RH WIND       PRES   REMARKS
PADUCAH        SUNNY     66  52  60 VRB6      30.12F
HENDERSON      SUNNY    N/A N/A N/A SW7       30.11F
OWENSBORO      MOSUNNY   62  46  55 S7        30.13F
HOPKINSVILLE   MOSUNNY   63  45  52 VRB2      30.13F
BOWLING GREEN  CLOUDY    62  41  46 VRB3      30.14F
GLASGOW        SUNNY     65  40  40 CALM      30.13S
$$

KYZ024-025-028>034-038-045-046-053-241800-
NORTH CENTRAL KENTUCKY

CITY           SKY/WX    TMP DP  RH WIND       PRES   REMARKS
LOUISVILLE/SDF MOSUNNY   62  45  53 S6        30.12F
LOUISVILLE/LOU MOSUNNY   60  44  55 VRB3      30.13F
FORT KNOX      MOSUNNY   62  42  48 VRB3      30.11F
$$

KYZ035>037-039>044-047>052-055>060-089>105-241800-
NORTHEAST KENTUCKY

CITY           SKY/WX    TMP DP  RH WIND       PRES   REMARKS
LEXINGTON      MOSUNNY   63  43  48 CALM      30.12F
COVINGTON      SUNNY     61  40  45 W5        30.10F
FRANKFORT      MOSUNNY   58  43  57 CALM      30.12F
$$

KYZ054-064>069-076>088-106>120-241800-
SOUTHEAST KENTUCKY

CITY           SKY/WX    TMP DP  RH WIND       PRES   REMARKS
JACKSON        PTSUNNY   57  43  59 NW3       30.12F
LONDON         MOSUNNY   59  44  57 CALM      30.12F
SOMERSET       MOSUNNY   59  45  58 CALM      30.13F
MIDDLESBORO    MOSUNNY   57  44  60 CALM      30.12S
MONTICELLO     MOSUNNY   62  45  53 E6        30.14S
$$




USA.gov is the U.S. government's official web portal to all federal, state and local government web resources and services.